,,Stat5,,Stat1,,Stat2,,Stat3,,Stat4,,Wind1,,Wind1,
time,status,PA1M_AVG,status,PR1M_SUM,status,RH1M_AVG,status,SR1M_AVG,status,TA1M_AVG,status,W1dAve1m,status,W1sAve1m,
2002-05-18, 00:00:01,VALID,918.981,VALID,0,VALID,93.6753,VALID,0.0339617,VALID,20.7964,VALID,280,VALID,0,
2002-05-18, 00:01:00,VALID,918.97,VALID,0,VALID,94.0657,VALID,0,VALID,20.7931,VALID,280,VALID,0.0867821,
2002-05-18, 00:02:00,VALID,918.927,VALID,0,VALID,93.9372,VALID,0.0169808,VALID,20.7835,VALID,44,VALID,0.45587,
2002-05-18, 00:03:00,VALID,918.913,VALID,0,VALID,93.7936,VALID,0,VALID,20.7019,VALID,65,VALID,0.414648,
2002-05-18, 00:04:00,VALID,918.891,VALID,0,VALID,94.0949,VALID,0.0169808,VALID,20.7051,VALID,65,VALID,0.252604,
2002-05-18, 00:05:00,VALID,918.88,VALID,0,VALID,94.0987,VALID,0.0509425,VALID,20.7126,VALID,65,VALID,0.0881076,
2002-05-18, 00:06:00,VALID,918.877,VALID,0,VALID,94.1674,VALID,0.0169808,VALID,20.7223,VALID,65,VALID,0,
2002-05-18, 00:07:00,VALID,918.874,VALID,0,VALID,94.114,VALID,0.0169808,VALID,20.7188,VALID,65,VALID,0,
2002-05-18, 00:08:00,VALID,918.869,VALID,0,VALID,94.0326,VALID,0.0339617,VALID,20.7226,VALID,65,VALID,0.0330529,
2002-05-18, 00:09:00,VALID,918.863,VALID,0,VALID,93.8063,VALID,-0.0849042,VALID,20.7005,VALID,57,VALID,0.115076,
2002-05-18, 00:10:00,VALID,918.852,VALID,0,VALID,93.3574,VALID,-0.101885,VALID,20.6725,VALID,26,VALID,0.5517,
2002-05-18, 00:11:00,VALID,918.836,VALID,0,VALID,93.4426,VALID,-0.101885,VALID,20.6587,VALID,7,VALID,0.72389,
2002-05-18, 00:12:00,VALID,918.837,VALID,0,VALID,93.3587,VALID,-0.0849042,VALID,20.6525,VALID,333,VALID,0.722973,
2002-05-18, 00:13:00,VALID,918.848,VALID,0,VALID,93.5151,VALID,-0.101885,VALID,20.6496,VALID,288,VALID,0.332933,
2002-05-18, 00:14:00,VALID,918.855,VALID,0,VALID,93.6537,VALID,-0.101885,VALID,20.666,VALID,262,VALID,0.148438,
2002-05-18, 00:15:00,VALID,918.847,VALID,0,VALID,93.2226,VALID,-0.0509425,VALID,20.6098,VALID,42,VALID,0.822151,
2002-05-18, 00:16:00,VALID,918.817,VALID,0,VALID,93.7796,VALID,-0.0849042,VALID,20.6038,VALID,52,VALID,0.546875,
2002-05-18, 00:17:00,VALID,918.805,VALID,0,VALID,93.6956,VALID,-0.101885,VALID,20.6133,VALID,34,VALID,0.821429,
2002-05-18, 00:18:00,VALID,918.807,VALID,0,VALID,93.5799,VALID,-0.101885,VALID,20.5815,VALID,11,VALID,0.636102,
2002-05-18, 00:19:00,VALID,918.819,VALID,0,VALID,93.7236,VALID,-0.0849042,VALID,20.5718,VALID,237,VALID,0.422585,
2002-05-18, 00:20:00,VALID,918.832,VALID,0,VALID,93.7745,VALID,-0.101885,VALID,20.5588,VALID,227,VALID,0.03125,
2002-05-18, 00:21:00,VALID,918.854,VALID,0,VALID,93.8737,VALID,-0.101885,VALID,20.5268,VALID,334,VALID,0.524523,
2002-05-18, 00:22:00,VALID,918.844,VALID,0,VALID,93.6689,VALID,-0.0679233,VALID,20.4878,VALID,50,VALID,0.505357,
2002-05-18, 00:23:00,VALID,918.847,VALID,0,VALID,94.1267,VALID,-0.101885,VALID,20.4788,VALID,40,VALID,0.325586,
2002-05-18, 00:24:00,VALID,918.859,VALID,0,VALID,94.1878,VALID,-0.0169808,VALID,20.4611,VALID,39,VALID,0.218099,
2002-05-18, 00:25:00,VALID,918.861,VALID,0,VALID,94.1204,VALID,0,VALID,20.448,VALID,16,VALID,0.281467,
2002-05-18, 00:26:00,VALID,918.869,VALID,0,VALID,94.0377,VALID,0,VALID,20.4054,VALID,4,VALID,0.0521537,
2002-05-18, 00:27:00,VALID,918.856,VALID,0,VALID,94.0847,VALID,0.0169808,VALID,20.3796,VALID,4,VALID,0.14886,
2002-05-18, 00:28:00,VALID,918.861,VALID,0,VALID,94.306,VALID,0,VALID,20.3538,VALID,345,VALID,0.0829814,
2002-05-18, 00:29:00,VALID,918.852,VALID,0,VALID,94.3861,VALID,0,VALID,20.357,VALID,345,VALID,0.139992,
2002-05-18, 00:30:00,VALID,918.843,VALID,0,VALID,94.4319,VALID,0,VALID,20.3508,VALID,346,VALID,0.0590533,
2002-05-18, 00:31:00,VALID,918.831,VALID,0,VALID,94.2755,VALID,0.0339617,VALID,20.3311,VALID,351,VALID,0.256373,
2002-05-18, 00:32:00,VALID,918.829,VALID,0,VALID,94.1369,VALID,0,VALID,20.309,VALID,359,VALID,0.780194,
2002-05-18, 00:33:00,VALID,918.822,VALID,0,VALID,93.9767,VALID,0,VALID,20.2832,VALID,15,VALID,0.807692,
2002-05-18, 00:34:00,VALID,918.811,VALID,0,VALID,93.8203,VALID,0.0169808,VALID,20.2474,VALID,3,VALID,0.877009,
2002-05-18, 00:35:00,VALID,918.806,VALID,0,VALID,94.1852,VALID,0.0169808,VALID,20.2345,VALID,2,VALID,0.866498,
2002-05-18, 00:36:00,VALID,918.79,VALID,0,VALID,94.142,VALID,0,VALID,20.2377,VALID,6,VALID,0.811444,
2002-05-18, 00:37:00,VALID,918.784,VALID,0,VALID,94.1903,VALID,0.0169808,VALID,20.2143,VALID,358,VALID,0.778348,
2002-05-18, 00:38:00,VALID,918.768,VALID,0,VALID,94.3874,VALID,0.0169808,VALID,20.2407,VALID,8,VALID,0.499794,
2002-05-18, 00:39:00,VALID,918.745,VALID,0,VALID,94.4268,VALID,0,VALID,20.2568,VALID,358,VALID,0.629025,
2002-05-18, 00:40:00,VALID,918.725,VALID,0,VALID,94.3149,VALID,0,VALID,20.2635,VALID,360,VALID,0.719172,
2002-05-18, 00:41:00,VALID,918.743,VALID,0,VALID,94.3759,VALID,0,VALID,20.2834,VALID,356,VALID,0.304036,
2002-05-18, 00:42:00,VALID,918.726,VALID,0,VALID,94.2399,VALID,-0.0169808,VALID,20.2872,VALID,10,VALID,0.958259,
2002-05-18, 00:43:00,VALID,918.719,VALID,0,VALID,94.1127,VALID,-0.0339617,VALID,20.267,VALID,9,VALID,0.824023,
2002-05-18, 00:44:00,VALID,918.695,VALID,0,VALID,93.9538,VALID,-0.0169808,VALID,20.2506,VALID,16,VALID,0.719184,
2002-05-18, 00:45:00,VALID,918.687,VALID,0,VALID,93.9093,VALID,-0.0169808,VALID,20.2514,VALID,16,VALID,0.847439,
2002-05-18, 00:46:00,VALID,918.659,VALID,0,VALID,93.9894,VALID,0.0169808,VALID,20.2476,VALID,14,VALID,1.10367,
2002-05-18, 00:47:00,VALID,918.631,VALID,0,VALID,93.7338,VALID,0,VALID,20.2347,VALID,13,VALID,1.16871,
2002-05-18, 00:48:00,VALID,918.615,VALID,0,VALID,93.5685,VALID,-0.0169808,VALID,20.193,VALID,10,VALID,1.16787,
2002-05-18, 00:49:00,VALID,918.602,VALID,0,VALID,93.908,VALID,0.0169808,VALID,20.1637,VALID,10,VALID,1.17356,
2002-05-18, 00:50:00,VALID,918.571,VALID,0,VALID,94.5006,VALID,0,VALID,20.1803,VALID,9,VALID,1.32123,
2002-05-18, 00:51:00,VALID,918.572,VALID,0,VALID,94.5718,VALID,0,VALID,20.2029,VALID,13,VALID,1.00555,
2002-05-18, 00:52:00,VALID,918.575,VALID,0,VALID,94.5934,VALID,0.0339617,VALID,20.2156,VALID,10,VALID,1.11972,
2002-05-18, 00:53:00,VALID,918.572,VALID,0,VALID,94.4777,VALID,0,VALID,20.2226,VALID,9,VALID,1.22436,
2002-05-18, 00:54:00,VALID,918.568,VALID,0,VALID,94.7206,VALID,-0.0169808,VALID,20.2191,VALID,11,VALID,1.48571,
2002-05-18, 00:55:00,VALID,918.563,VALID,0,VALID,94.6938,VALID,-0.0169808,VALID,20.2377,VALID,9,VALID,1.14821,
2002-05-18, 00:56:00,VALID,918.557,VALID,0,VALID,94.6913,VALID,0,VALID,20.2377,VALID,8,VALID,1.20334,
2002-05-18, 00:57:00,VALID,918.574,VALID,0,VALID,94.9711,VALID,0.0169808,VALID,20.2991,VALID,12,VALID,1.68348,
2002-05-18, 00:58:00,VALID,918.552,VALID,0,VALID,94.6811,VALID,0.0339617,VALID,20.3545,VALID,12,VALID,1.28043,
2002-05-18, 00:59:00,VALID,918.54,VALID,0,VALID,94.5095,VALID,0.0339617,VALID,20.3637,VALID,16,VALID,1.15412,
2002-05-18, 01:00:00,VALID,918.543,VALID,0,VALID,94.0568,VALID,0.0169808,VALID,20.3349,VALID,10,VALID,1.17209,
2002-05-18, 01:01:00,VALID,918.544,VALID,0,VALID,94.0835,VALID,0.0339617,VALID,20.309,VALID,13,VALID,1.10655,
2002-05-18, 01:02:00,VALID,918.566,VALID,0,VALID,94.3086,VALID,-0.0169808,VALID,20.2832,VALID,8,VALID,1.26429,
2002-05-18, 01:03:00,VALID,918.561,VALID,0,VALID,94.8515,VALID,0.0169808,VALID,20.2894,VALID,10,VALID,0.936328,
2002-05-18, 01:04:00,VALID,918.567,VALID,0,VALID,94.9126,VALID,0.0169808,VALID,20.3254,VALID,10,VALID,1.22244,
2002-05-18, 01:05:00,VALID,918.553,VALID,0,VALID,94.8515,VALID,0,VALID,20.3314,VALID,18,VALID,1.352,
2002-05-18, 01:06:00,VALID,918.543,VALID,0,VALID,94.348,VALID,0,VALID,20.3254,VALID,15,VALID,1.02639,
2002-05-18, 01:07:00,VALID,918.527,VALID,0,VALID,94.2844,VALID,0,VALID,20.2738,VALID,21,VALID,1.16596,
2002-05-18, 01:08:00,VALID,918.5,VALID,0,VALID,94.4739,VALID,0.0339617,VALID,20.2708,VALID,16,VALID,1.09876,
2002-05-18, 01:09:00,VALID,918.475,VALID,0,VALID,94.3492,VALID,0,VALID,20.2283,VALID,1,VALID,0.776605,
2002-05-18, 01:10:00,VALID,918.459,VALID,0,VALID,95.0295,VALID,0,VALID,20.2606,VALID,350,VALID,0.984145,
2002-05-18, 01:11:00,VALID,918.458,VALID,0,VALID,95.3564,VALID,0.0169808,VALID,20.3254,VALID,357,VALID,1.18051,
2002-05-18, 01:12:00,VALID,918.449,VALID,0,VALID,95.3551,VALID,0.0169808,VALID,20.3702,VALID,5,VALID,1.35663,
2002-05-18, 01:13:00,VALID,918.445,VALID,0,VALID,95.0626,VALID,0.0169808,VALID,20.4025,VALID,10,VALID,1.17748,
2002-05-18, 01:14:00,VALID,918.439,VALID,0,VALID,94.7867,VALID,0.0339617,VALID,20.3995,VALID,19,VALID,1.03839,
2002-05-18, 01:15:00,VALID,918.438,VALID,0,VALID,94.4726,VALID,0.0339617,VALID,20.3801,VALID,16,VALID,1.06411,
2002-05-18, 01:16:00,VALID,918.436,VALID,0,VALID,94.2679,VALID,0.0339617,VALID,20.3446,VALID,8,VALID,0.955659,
2002-05-18, 01:17:00,VALID,918.431,VALID,0,VALID,94.395,VALID,0.0339617,VALID,20.276,VALID,7,VALID,1.14799,
2002-05-18, 01:18:00,VALID,918.439,VALID,0,VALID,94.8948,VALID,0.0509425,VALID,20.2668,VALID,7,VALID,1.06394,
2002-05-18, 01:19:00,VALID,918.415,VALID,0,VALID,95.3742,VALID,0.0339617,VALID,20.2961,VALID,2,VALID,1.19034,
2002-05-18, 01:20:00,VALID,918.374,VALID,0,VALID,95.6603,VALID,0.0169808,VALID,20.3577,VALID,5,VALID,1.00929,
2002-05-18, 01:21:00,VALID,918.362,VALID,0,VALID,95.6743,VALID,0,VALID,20.3868,VALID,12,VALID,1.12109,
2002-05-18, 01:22:00,VALID,918.335,VALID,0,VALID,95.2686,VALID,0.0339617,VALID,20.3771,VALID,12,VALID,1.31629,
2002-05-18, 01:23:00,VALID,918.317,VALID,0,VALID,95.0753,VALID,0.0339617,VALID,20.3669,VALID,13,VALID,1.04434,
2002-05-18, 01:24:00,VALID,918.295,VALID,0,VALID,95.1147,VALID,-0.0169808,VALID,20.3674,VALID,17,VALID,1.273,
2002-05-18, 01:25:00,VALID,918.257,VALID,0,VALID,95.2025,VALID,0.0169808,VALID,20.3642,VALID,4,VALID,1.28168,
2002-05-18, 01:26:00,VALID,918.264,VALID,0,VALID,95.4225,VALID,0,VALID,20.3903,VALID,357,VALID,0.843328,
2002-05-18, 01:27:00,VALID,918.238,VALID,0,VALID,95.5522,VALID,0.0169808,VALID,20.406,VALID,359,VALID,1.07348,
2002-05-18, 01:28:00,VALID,918.206,VALID,0,VALID,95.7366,VALID,0,VALID,20.4644,VALID,8,VALID,0.961739,
2002-05-18, 01:29:00,VALID,918.18,VALID,0,VALID,95.4772,VALID,0,VALID,20.4803,VALID,7,VALID,0.942568,
2002-05-18, 01:30:00,VALID,918.17,VALID,0,VALID,95.3258,VALID,0,VALID,20.4902,VALID,14,VALID,0.738051,
2002-05-18, 01:31:00,VALID,918.146,VALID,0,VALID,95.1504,VALID,0,VALID,20.4905,VALID,14,VALID,0.230674,
2002-05-18, 01:32:00,VALID,918.143,VALID,0,VALID,95.2317,VALID,0,VALID,20.4738,VALID,23,VALID,0.49261,
2002-05-18, 01:33:00,VALID,918.146,VALID,0,VALID,95.3258,VALID,0.0169808,VALID,20.5064,VALID,35,VALID,0.459335,
2002-05-18, 01:34:00,VALID,918.15,VALID,0,VALID,94.0441,VALID,0.0169808,VALID,20.4286,VALID,40,VALID,0.636384,
2002-05-18, 01:35:00,VALID,918.15,VALID,0,VALID,94.5184,VALID,0.0509425,VALID,20.3451,VALID,51,VALID,0.900046,
2002-05-18, 01:36:00,VALID,918.139,VALID,0,VALID,94.9965,VALID,0,VALID,20.3543,VALID,48,VALID,0.922508,
2002-05-18, 01:37:00,VALID,918.133,VALID,0,VALID,94.8592,VALID,0.0339617,VALID,20.3289,VALID,53,VALID,0.536607,
2002-05-18, 01:38:00,VALID,918.132,VALID,0,VALID,95.2788,VALID,0.0169808,VALID,20.3319,VALID,45,VALID,0.445313,
2002-05-18, 01:39:00,VALID,918.11,VALID,0,VALID,95.4708,VALID,0.0679233,VALID,20.3443,VALID,35,VALID,0.51089,
2002-05-18, 01:40:00,VALID,918.082,VALID,0,VALID,95.4479,VALID,0.0679233,VALID,20.3406,VALID,25,VALID,0.157095,
2002-05-18, 01:41:00,VALID,918.063,VALID,0,VALID,95.4886,VALID,0.0339617,VALID,20.3341,VALID,25,VALID,0.368056,
2002-05-18, 01:42:00,VALID,918.037,VALID,0,VALID,95.4454,VALID,0.0509425,VALID,20.3115,VALID,25,VALID,0.282589,
2002-05-18, 01:43:00,VALID,918.037,VALID,0,VALID,95.528,VALID,0.0339617,VALID,20.2926,VALID,27,VALID,0.46875,
2002-05-18, 01:44:00,VALID,918.024,VALID,0,VALID,95.3233,VALID,0.0169808,VALID,20.2695,VALID,33,VALID,0.592882,
2002-05-18, 01:45:00,VALID,918.016,VALID,0,VALID,95.2381,VALID,0.0679233,VALID,20.2113,VALID,24,VALID,0.511936,
2002-05-18, 01:46:00,VALID,918.019,VALID,0,VALID,95.0295,VALID,0.0339617,VALID,20.1467,VALID,24,VALID,0.411951,
2002-05-18, 01:47:00,VALID,918.016,VALID,0,VALID,95.1999,VALID,0.0339617,VALID,20.109,VALID,16,VALID,0.418074,
2002-05-18, 01:48:00,VALID,917.986,VALID,0,VALID,95.4772,VALID,0.0339617,VALID,20.0665,VALID,356,VALID,0.642228,
2002-05-18, 01:49:00,VALID,917.964,VALID,0,VALID,95.9298,VALID,0.0679233,VALID,20.0921,VALID,8,VALID,0.76098,
2002-05-18, 01:50:00,VALID,917.941,VALID,0,VALID,96.1358,VALID,0.0849042,VALID,20.0956,VALID,12,VALID,0.919807,
2002-05-18, 01:51:00,VALID,917.923,VALID,0,VALID,96.2834,VALID,0.0509425,VALID,20.0953,VALID,11,VALID,1.11349,
2002-05-18, 01:52:00,VALID,917.9,VALID,0,VALID,96.5224,VALID,0.0509425,VALID,20.1045,VALID,8,VALID,1.06757,
2002-05-18, 01:53:00,VALID,917.86,VALID,0,VALID,96.4143,VALID,0.101885,VALID,20.1077,VALID,4,VALID,0.645433,
2002-05-18, 01:54:00,VALID,917.832,VALID,0,VALID,96.511,VALID,0,VALID,20.1092,VALID,309,VALID,0.742188,
2002-05-18, 01:55:00,VALID,917.812,VALID,0,VALID,96.7157,VALID,-0.0509425,VALID,20.1224,VALID,263,VALID,0.545956,
2002-05-18, 01:56:00,VALID,917.782,VALID,0,VALID,96.6445,VALID,-0.0509425,VALID,20.1227,VALID,289,VALID,0.320524,
2002-05-18, 01:57:00,VALID,917.761,VALID,0,VALID,96.3813,VALID,-0.0509425,VALID,20.0904,VALID,266,VALID,0.220313,
2002-05-18, 01:58:00,VALID,917.743,VALID,0,VALID,95.9922,VALID,-0.0339617,VALID,19.9907,VALID,285,VALID,0.150699,
2002-05-18, 01:59:00,VALID,917.727,VALID,0,VALID,96.0926,VALID,-0.0509425,VALID,19.9713,VALID,341,VALID,0.424716,
2002-05-18, 02:00:00,VALID,917.734,VALID,0,VALID,96.2477,VALID,-0.0509425,VALID,19.9452,VALID,352,VALID,0.568412,
2002-05-18, 02:01:00,VALID,917.724,VALID,0,VALID,96.544,VALID,-0.0849042,VALID,19.9611,VALID,353,VALID,0.530599,
2002-05-18, 02:02:01,VALID,917.724,VALID,0,VALID,96.5262,VALID,-0.0849042,VALID,19.9452,VALID,358,VALID,0.460714,
2002-05-18, 02:03:00,VALID,917.737,VALID,0,VALID,96.7386,VALID,-0.0509425,VALID,19.9482,VALID,8,VALID,0.421875,
2002-05-18, 02:04:00,VALID,917.716,VALID,0,VALID,96.8619,VALID,-0.0679233,VALID,19.9746,VALID,8,VALID,0.349392,
2002-05-18, 02:05:00,VALID,917.722,VALID,0,VALID,96.9726,VALID,-0.0509425,VALID,19.9937,VALID,13,VALID,0.447483,
2002-05-18, 02:06:00,VALID,917.722,VALID,0,VALID,97.0171,VALID,-0.0339617,VALID,20.0133,VALID,9,VALID,0.594383,
2002-05-18, 02:07:00,VALID,917.706,VALID,0,VALID,96.7793,VALID,-0.0509425,VALID,20.0039,VALID,9,VALID,0.432855,
2002-05-18, 02:08:00,VALID,917.695,VALID,0,VALID,96.1753,VALID,-0.101885,VALID,19.9199,VALID,360,VALID,0.5627,
2002-05-18, 02:09:00,VALID,917.689,VALID,0,VALID,95.9629,VALID,0.0169808,VALID,19.8309,VALID,354,VALID,0.277238,
2002-05-18, 02:10:00,VALID,917.683,VALID,0,VALID,96.2058,VALID,0.0509425,VALID,19.821,VALID,311,VALID,0.393382,
2002-05-18, 02:11:00,VALID,917.653,VALID,0,VALID,96.7717,VALID,0.0509425,VALID,19.902,VALID,340,VALID,0.518092,
2002-05-18, 02:12:00,VALID,917.637,VALID,0,VALID,96.8543,VALID,0.0339617,VALID,19.9278,VALID,3,VALID,0.639147,
2002-05-18, 02:13:00,VALID,917.612,VALID,0,VALID,96.9344,VALID,0.101885,VALID,19.9569,VALID,7,VALID,0.755008,
2002-05-18, 02:14:00,VALID,917.593,VALID,0,VALID,96.9993,VALID,0.0339617,VALID,19.9825,VALID,10,VALID,0.620089,
2002-05-18, 02:15:00,VALID,917.585,VALID,0,VALID,96.9319,VALID,0.0339617,VALID,19.9957,VALID,14,VALID,0.425781,
2002-05-18, 02:16:01,VALID,917.572,VALID,0,VALID,96.8988,VALID,0.0339617,VALID,19.986,VALID,41,VALID,0.431166,
2002-05-18, 02:17:00,VALID,917.585,VALID,0,VALID,96.834,VALID,0.0169808,VALID,19.9895,VALID,57,VALID,0.388839,
2002-05-18, 02:18:00,VALID,917.584,VALID,0,VALID,96.717,VALID,0.0849042,VALID,19.9532,VALID,58,VALID,0.287829,
2002-05-18, 02:19:00,VALID,917.585,VALID,0,VALID,96.6814,VALID,0.0339617,VALID,19.9345,VALID,60,VALID,0.288826,
2002-05-18, 02:20:00,VALID,917.586,VALID,0,VALID,95.9705,VALID,0.0169808,VALID,19.86,VALID,61,VALID,0.17272,
2002-05-18, 02:21:00,VALID,917.582,VALID,0,VALID,95.4937,VALID,0.0339617,VALID,19.7305,VALID,61,VALID,0.174913,
2002-05-18, 02:22:01,VALID,917.584,VALID,0,VALID,95.8586,VALID,0.0339617,VALID,19.6498,VALID,90,VALID,0.31808,
2002-05-18, 02:23:00,VALID,917.573,VALID,0,VALID,96.1931,VALID,0.0509425,VALID,19.6277,VALID,127,VALID,0.404102,
2002-05-18, 02:24:00,VALID,917.564,VALID,0,VALID,96.2719,VALID,-0.0169808,VALID,19.6026,VALID,134,VALID,0.496745,
2002-05-18, 02:25:00,VALID,917.553,VALID,0,VALID,96.6865,VALID,-0.0339617,VALID,19.6031,VALID,134,VALID,0.397569,
2002-05-18, 02:26:00,VALID,917.552,VALID,0,VALID,97.0311,VALID,-0.0169808,VALID,19.6485,VALID,134,VALID,0.396115,
2002-05-18, 02:27:00,VALID,917.552,VALID,0,VALID,96.9255,VALID,-0.0509425,VALID,19.6485,VALID,133,VALID,0.27935,
2002-05-18, 02:28:01,VALID,917.537,VALID,0,VALID,97.0222,VALID,-0.0509425,VALID,19.6388,VALID,115,VALID,0.349159,
2002-05-18, 02:29:00,VALID,917.541,VALID,0,VALID,96.8225,VALID,-0.0679233,VALID,19.6292,VALID,108,VALID,0.472973,
2002-05-18, 02:30:00,VALID,917.538,VALID,0,VALID,96.7182,VALID,-0.0679233,VALID,19.574,VALID,99,VALID,0.585018,
2002-05-18, 02:31:00,VALID,917.545,VALID,0,VALID,96.7882,VALID,-0.0849042,VALID,19.5551,VALID,111,VALID,0.583676,
2002-05-18, 02:32:00,VALID,917.535,VALID,0,VALID,97.0667,VALID,-0.0679233,VALID,19.5521,VALID,138,VALID,0.804054,
2002-05-18, 02:33:00,VALID,917.546,VALID,0,VALID,96.9395,VALID,-0.0849042,VALID,19.5715,VALID,144,VALID,0.908253,
2002-05-18, 02:34:00,VALID,917.547,VALID,0,VALID,96.834,VALID,-0.0679233,VALID,19.5196,VALID,153,VALID,1.00982,
2002-05-18, 02:35:00,VALID,917.552,VALID,0,VALID,96.8034,VALID,-0.0169808,VALID,19.4843,VALID,150,VALID,0.802849,
2002-05-18, 02:36:01,VALID,917.567,VALID,0,VALID,96.8403,VALID,-0.0679233,VALID,19.4559,VALID,141,VALID,0.444046,
2002-05-18, 02:37:00,VALID,917.582,VALID,0,VALID,96.7564,VALID,-0.101885,VALID,19.4005,VALID,145,VALID,0.81183,
2002-05-18, 02:38:00,VALID,917.6,VALID,0,VALID,96.6369,VALID,-0.0849042,VALID,19.3456,VALID,146,VALID,1.19326,
2002-05-18, 02:39:00,VALID,917.603,VALID,0,VALID,96.5924,VALID,0.0169808,VALID,19.2664,VALID,145,VALID,1.20265,
2002-05-18, 02:40:01,VALID,917.595,VALID,0,VALID,96.8429,VALID,0.0169808,VALID,19.2115,VALID,142,VALID,1.10557,
2002-05-18, 02:41:00,VALID,917.591,VALID,0,VALID,96.9484,VALID,0.101885,VALID,19.1561,VALID,137,VALID,0.782118,
2002-05-18, 02:42:01,VALID,917.58,VALID,0,VALID,97.2371,VALID,0.0679233,VALID,19.1047,VALID,140,VALID,0.991741,
2002-05-18, 02:43:00,VALID,917.567,VALID,0,VALID,97.5677,VALID,0.101885,VALID,19.095,VALID,143,VALID,0.860352,
2002-05-18, 02:44:00,VALID,917.562,VALID,0,VALID,97.8665,VALID,0.0849042,VALID,19.098,VALID,143,VALID,0.843316,
2002-05-18, 02:45:00,VALID,917.562,VALID,0,VALID,97.9644,VALID,0.0849042,VALID,19.1019,VALID,128,VALID,0.526693,
2002-05-18, 02:46:00,VALID,917.563,VALID,0,VALID,98.0471,VALID,0.0679233,VALID,19.0721,VALID,118,VALID,0.691301,
2002-05-18, 02:47:00,VALID,917.575,VALID,0,VALID,98.323,VALID,0.0679233,VALID,19.0947,VALID,96,VALID,1.00718,
2002-05-18, 02:48:01,VALID,917.582,VALID,0,VALID,98.4196,VALID,0.0509425,VALID,19.1303,VALID,94,VALID,1.08774,
2002-05-18, 02:49:00,VALID,917.596,VALID,0,VALID,98.426,VALID,0.0849042,VALID,19.1241,VALID,90,VALID,1.15562,
2002-05-18, 02:50:00,VALID,917.633,VALID,0,VALID,98.482,VALID,0.0849042,VALID,19.1178,VALID,89,VALID,1.16613,
2002-05-18, 02:51:00,VALID,917.663,VALID,0,VALID,98.8367,VALID,0,VALID,19.1869,VALID,108,VALID,0.996505,
2002-05-18, 02:52:00,VALID,917.683,VALID,0,VALID,98.8647,VALID,-0.0169808,VALID,19.2614,VALID,122,VALID,0.815667,
2002-05-18, 02:53:00,VALID,917.684,VALID,0,VALID,98.8278,VALID,-0.0509425,VALID,19.2843,VALID,121,VALID,0.655649,
2002-05-18, 02:54:00,VALID,917.68,VALID,0,VALID,98.7935,VALID,-0.0679233,VALID,19.2875,VALID,115,VALID,0.560045,
2002-05-18, 02:55:00,VALID,917.652,VALID,0,VALID,98.7592,VALID,-0.0509425,VALID,19.2843,VALID,103,VALID,0.580882,
2002-05-18, 02:56:01,VALID,917.63,VALID,0,VALID,98.7846,VALID,-0.0339617,VALID,19.2907,VALID,98,VALID,0.474029,
2002-05-18, 02:57:00,VALID,917.594,VALID,0,VALID,98.8584,VALID,-0.0169808,VALID,19.3066,VALID,103,VALID,0.451116,
2002-05-18, 02:58:00,VALID,917.565,VALID,0,VALID,98.9092,VALID,-0.0509425,VALID,19.362,VALID,105,VALID,0.399054,
2002-05-18, 02:59:00,VALID,917.543,VALID,0,VALID,98.866,VALID,0,VALID,19.3745,VALID,105,VALID,0.362689,
2002-05-18, 03:00:00,VALID,917.528,VALID,0,VALID,98.7541,VALID,-0.0849042,VALID,19.3677,VALID,105,VALID,0.097973,
2002-05-18, 03:01:00,VALID,917.528,VALID,0,VALID,98.6905,VALID,-0.0169808,VALID,19.3389,VALID,105,VALID,0.0434028,
2002-05-18, 03:02:01,VALID,917.521,VALID,0,VALID,98.604,VALID,0,VALID,19.3101,VALID,105,VALID,0,
2002-05-18, 03:03:00,VALID,917.523,VALID,0,VALID,98.4972,VALID,-0.0679233,VALID,19.2612,VALID,105,VALID,0,
2002-05-18, 03:04:00,VALID,917.534,VALID,0,VALID,98.4044,VALID,-0.0339617,VALID,19.2326,VALID,105,VALID,0,
2002-05-18, 03:05:00,VALID,917.54,VALID,0,VALID,98.1552,VALID,-0.0679233,VALID,19.1645,VALID,105,VALID,0,
2002-05-18, 03:06:01,VALID,917.547,VALID,0,VALID,97.7304,VALID,-0.0339617,VALID,19.045,VALID,105,VALID,0.0371622,
2002-05-18, 03:07:00,VALID,917.555,VALID,0,VALID,97.6618,VALID,-0.0339617,VALID,18.926,VALID,105,VALID,0.297508,
2002-05-18, 03:08:01,VALID,917.551,VALID,0,VALID,97.8652,VALID,-0.0509425,VALID,18.8835,VALID,123,VALID,0.655649,
2002-05-18, 03:09:00,VALID,917.538,VALID,0,VALID,97.9771,VALID,-0.101885,VALID,18.887,VALID,147,VALID,0.689189,
2002-05-18, 03:10:00,VALID,917.514,VALID,0,VALID,98.1043,VALID,-0.0509425,VALID,18.89,VALID,148,VALID,0.492877,
2002-05-18, 03:11:00,VALID,917.477,VALID,0,VALID,98.2416,VALID,-0.0679233,VALID,18.929,VALID,143,VALID,0.642475,
2002-05-18, 03:12:00,VALID,917.452,VALID,0,VALID,98.3141,VALID,-0.0509425,VALID,18.9617,VALID,146,VALID,0.754645,
2002-05-18, 03:13:00,VALID,917.417,VALID,0,VALID,98.5252,VALID,-0.0169808,VALID,19.0095,VALID,135,VALID,0.6875,
2002-05-18, 03:14:00,VALID,917.4,VALID,0,VALID,98.4972,VALID,-0.0169808,VALID,19.0355,VALID,129,VALID,0.567411,
2002-05-18, 03:15:00,VALID,917.382,VALID,0,VALID,98.5379,VALID,-0.0849042,VALID,19.0351,VALID,126,VALID,0.755515,
2002-05-18, 03:16:01,VALID,917.375,VALID,0,VALID,98.6231,VALID,-0.0339617,VALID,19.0646,VALID,125,VALID,0.705448,
2002-05-18, 03:17:00,VALID,917.367,VALID,0,VALID,98.7757,VALID,-0.0509425,VALID,19.1029,VALID,125,VALID,0.654018,
2002-05-18, 03:18:00,VALID,917.357,VALID,0,VALID,98.8812,VALID,-0.0509425,VALID,19.1749,VALID,126,VALID,0.620477,
2002-05-18, 03:19:00,VALID,917.359,VALID,0,VALID,98.8316,VALID,-0.0679233,VALID,19.2065,VALID,126,VALID,0.5625,
2002-05-18, 03:20:00,VALID,917.344,VALID,0,VALID,98.6752,VALID,-0.0339617,VALID,19.2075,VALID,109,VALID,0.595439,
2002-05-18, 03:21:00,VALID,917.336,VALID,0,VALID,98.7287,VALID,-0.0509425,VALID,19.1943,VALID,108,VALID,0.62066,
2002-05-18, 03:22:01,VALID,917.338,VALID,0,VALID,98.7554,VALID,-0.101885,VALID,19.1841,VALID,97,VALID,0.669866,
2002-05-18, 03:23:00,VALID,917.34,VALID,0,VALID,98.6663,VALID,-0.0169808,VALID,19.1705,VALID,88,VALID,0.798437,
2002-05-18, 03:24:00,VALID,917.345,VALID,0,VALID,98.749,VALID,-0.0509425,VALID,19.1839,VALID,89,VALID,0.715061,
2002-05-18, 03:25:00,VALID,917.336,VALID,0,VALID,98.693,VALID,0,VALID,19.1903,VALID,89,VALID,0.589193,
2002-05-18, 03:26:00,VALID,917.34,VALID,0,VALID,98.6562,VALID,-0.0339617,VALID,19.1774,VALID,89,VALID,0.555532,
2002-05-18, 03:27:00,VALID,917.334,VALID,0,VALID,98.6956,VALID,-0.0169808,VALID,19.1844,VALID,89,VALID,0.571579,
2002-05-18, 03:28:01,VALID,917.328,VALID,0,VALID,98.749,VALID,-0.0509425,VALID,19.197,VALID,90,VALID,0.471154,
2002-05-18, 03:29:00,VALID,917.316,VALID,0,VALID,98.6803,VALID,0,VALID,19.2065,VALID,90,VALID,0.478252,
2002-05-18, 03:30:00,VALID,917.297,VALID,0,VALID,98.5163,VALID,-0.0169808,VALID,19.1712,VALID,100,VALID,0.398667,
2002-05-18, 03:31:00,VALID,917.296,VALID,0,VALID,98.4629,VALID,-0.0169808,VALID,19.1158,VALID,132,VALID,0.652755,
2002-05-18, 03:32:00,VALID,917.313,VALID,0,VALID,98.4896,VALID,-0.0169808,VALID,19.0905,VALID,140,VALID,0.544341,